Location: Newark
(52.8300°N, 8.0000°E)
Time: 09:12:54
(UTC+00:00)

FALCON 9 DEB - Pass Details

Date: 31 January 2020
Orbit: 247 x 252 km, 53.0° (Epoch: 16 February)

Event Time Altitude Azimuth Distance (km) Brightness Sun altitude
Rises 17:15:38 0° 281° (WNW) 1,941 ? -10.0°
Reaches altitude 10° 17:17:44 10° 266° (W) 1,131 ? -10.3°
Maximum altitude 17:19:48 22° 211° (SSW) 687 ? -10.6°
Drops below altitude 10° 17:21:52 10° 155° (SSE) 1,138 ? -10.9°
Enters shadow 17:23:28 - 142° (SE) 1,740 ? -11.1°
